Flag Weather past 2 weeks in Worcester, Massachusetts, U.S.A.

Now
30 °F

Light snow. Ice fog.


Feels Like: 19 °F
Forecast: 28 / 35 °F
Wind: 15 mph from North

Location: Worcester Regional Airport

Current Time: Nov 27, 2014 at 12:36:39 AM

Latest Report: Nov 26, 2014 at 11:54 PM


Visibility: 1 mi

Pressure: 29.71 "Hg

Humidity: 96%

Dew point: 29 °F

Location of WorcesterLocation

Historic Weather in Worcester — Graph

°F

Worcester temperature yesterday

Maximum temperature yesterday: 40 °F (at 12:54 AM)
Minimum temperature yesterday: 30 °F (at 5:54 PM)
Average temperature yesterday: 34 °F

Past Weeks' High & Low Weather Summary

 TemperatureHumidityPressure
High63 °F (Nov 12, 12:54 PM)100% (Nov 11, 10:54 PM)30.42 "Hg (Nov 11, 10:54 PM)
Low17 °F (Nov 19, 3:54 AM)24% (Nov 22, 1:54 PM)29.43 "Hg (Nov 17, 7:59 PM)
Average36 °F66%30.00 "Hg
* Reported Nov 11 10:54 PM — Nov 26 10:54 PM, Worcester, Weather by CustomWeather, © 2014

Note: Actual official high and low records may vary slightly from our data, if they occured in-between our weather recording intervals... More about our weather records

Advertising

Worcester weather history for previous 24 hours

 ConditionsComfort  
Time TempWeatherWind HumidityBarometerVisibility
10:54 PM
Nov 26
30 °FLight snow. Ice fog.18 mph96%29.72 "Hg1 mi
9:54 PM30 °FLight snow. Ice fog.20 mph100%29.72 "Hg1 mi
8:54 PM30 °FLight snow. Ice fog.21 mph100%29.74 "Hg1 mi
7:58 PM31 °FFreezing rain. Ice fog.20 mph96%29.71 "Hg2 mi
6:54 PM30 °FLight snow. Ice fog.20 mph100%29.75 "Hg2 mi
5:54 PM30 °FLight snow. Ice fog.17 mph100%29.82 "Hg2 mi
4:54 PM31 °FLight snow. Ice fog.16 mph96%29.87 "Hg2 mi
3:54 PM31 °FLight snow. Ice fog.13 mph100%29.92 "Hg1 mi
2:54 PM31 °FLight snow. Ice fog.13 mph100%30.01 "Hg1 mi
1:54 PM32 °FSnow. Fog.12 mph96%30.06 "Hg0 mi
12:54 PM31 °FLight snow. Ice fog.10 mph100%30.04 "Hg1 mi
11:54 AM32 °FSnow. Fog.8 mph100%30.12 "Hg1 mi
10:54 AM32 °FSnow. Fog.8 mph100%30.14 "Hg1 mi
10:01 AM34 °FLight snow. Fog.7 mph92%30.12 "Hg1 mi
8:54 AM39 °FOvercast.7 mph60%30.18 "Hg10 mi
7:54 AM38 °FMostly cloudy.8 mph65%30.18 "Hg9 mi
6:54 AM38 °FOvercast.9 mph63%30.15 "Hg10 mi
5:54 AM39 °FPassing clouds.9 mph60%30.17 "Hg10 mi
4:54 AM38 °FPassing clouds.3 mph68%30.18 "Hg10 mi
3:54 AM39 °FClear.3 mph62%30.20 "Hg10 mi
2:54 AM40 °FClear.6 mph60%30.17 "Hg10 mi
1:54 AM40 °FClear.6 mph60%30.15 "Hg10 mi
12:54 AM40 °FClear.6 mph63%30.13 "Hg10 mi
Weather by CustomWeather, © 2014

See weather overviewHow to use our weather pages